Current weather by "City, St" or "zip code"  
 
Advertise Here

Current Conditions: Watertown, WI

Fair


17.0 F

Last Updated on Jan 27 2021, 11:55 am CST
Humidity: 69%
Wind Speed: N 6.9 mph
Barometer 30.39 in
Dewpoint: 8.4 F
Visibility: 10.00 mi
Precip: --
Heat Index: NA
Wind Chill: 8 F
Current conditions at:

Watertown, WI (KRYV)

Lat: 43.17016 Lon: 88.72497

Local Radar Image active severe weather and emergency alerts image image weather storm and storm spotter reports image weather observation monitoring service image
Local
Radar
Active
Alerts
Storm Reports Obs
Monitoring

Sign-up For Email & Text Message Weather Alert Notification Services


Advertise Here

Observation History for Watertown, WI


Time Wind
(mph)
Vis
(mi)
Weather Precip (in) Temperature (F) Relative
Humidity
Wind
Chill
(F)
Heat
Index
(F)
Pressure
Air Dwpt altimeter
(in)
sea level
(mb)
Rmks
11:55 am CST N 6.9 10.00 Fair -- 17.0 8.4 69% 8 NA 30.39 M
10:55 am CST N 11.5 10.00 Fair -- 15.0 7.5 72% 2 NA 30.41 M
9:55 am CST N 11.5 10.00 Fair -- 13.0 6.8 77% -1 NA 30.40 M
8:55 am CST N 9.2 10.00 Fair -- 10.0 7.5 91% -3 NA 30.37 M
7:55 am CST N 5.8 10.00 Fair -- 6.0 3.4 90% -4 NA 30.37 M
6:55 am CST N 4.6 10.00 Fair -- 7.0 4.8 91% -2 NA 30.36 M
5:55 am CST N 8.1 10.00 Fair -- 8.0 5.9 92% -4 NA 30.31 M
4:55 am CST N 6.9 10.00 Fair -- 9.0 6.8 92% -2 NA 30.31 M
3:55 am CST N 3.5 10.00 Fair -- 8.0 5.7 92% NA NA 30.33 M
2:55 am CST N 0.0 10.00 Fair -- 4.0 1.9 90% NA NA 30.33 M
1:55 am CST N 0.0 10.00 Fair -- 3.0 0.5 89% NA NA 30.31 M
12:55 am CST N 0.0 10.00 Fair -- 2.0 -0.8 88% NA NA 30.29 M
11:55 pm CST N 0.0 10.00 Fair -- 6.0 3.7 91% NA NA 30.25 M
10:55 pm CST N 0.0 10.00 Fair -- 6.0 3.2 90% NA NA 30.22 M
9:55 pm CST N 0.0 0.75 Fog/Mist -- 5.0 2.3 90% NA NA 30.20 M
8:55 pm CST N 0.0 10.00 Fair -- 6.0 4.3 91% NA NA 30.19 M
7:55 pm CST N 0.0 10.00 Fair -- 11.0 10.4 98% NA NA 30.19 M
6:55 pm CST N 0.0 10.00 Fair -- 19.0 13.3 80% NA NA 30.17 M
5:55 pm CST N 8.1 10.00 Overcast -- 22.0 15.6 75% 13 NA 30.13 M
4:55 pm CST N 12.7 G 18.4 10.00 Overcast -- 23.0 15.8 74% 11 NA 30.10 M
3:55 pm CST N 11.5 G 18.4 10.00 Overcast -- 24.0 17.8 77% 13 NA 30.07 M
2:55 pm CST N 15.0 G 20.7 10.00 Overcast -- 24.0 18.3 77% 11 NA 30.04 M
1:55 pm CST N 16.1 10.00 Mostly Cloudy -- 26.0 19.4 77% 13 NA 30.02 M
12:55 pm CST N 16.1 G 24.2 7.00 Overcast -- 24.0 19.2 80% 11 NA 29.99 M

Regional Weather Observation


Juneau, Dodge County Airport, WI (KUNU)

Fair
15.0 F

Madison, Dane County Regional-Truax Field, WI (KMSN)

A Few Clouds
15.0 F

Fond Du Lac County Airport, WI (KFLD)

Fair
17.0 F

Waukesha County Airport, WI (KUES)

Fair
19.0 F

Middleton Muni - Morey Field, WI (KC29)

Fair
18.0 F

West Bend Municipal Airport, WI (KETB)

Partly Cloudy
21.0 F